Location: Garfield Township Fire Department Station 2
(38.1275°N, 100.5090°W)
Time: 10:19:15
(UTC+00:00)

Daily predictions for brighter satellites

Satellite Brightness Start Highest point End
(mag) Time Altitude Azimuth Time Altitude Azimuth Time Altitude Azimuth
Cosmos 1536 4.3 12:03:40 10° NW 12:06:14 17° W 12:08:47 10° SW
Cosmos 1777 Rocket 4.1 12:01:52 10° NNW 12:07:06 86° ENE 12:12:17 10° SSE
Cosmos 1975 3.2 12:03:49 10° N 12:07:52 74° E 12:11:55 10° SSE
NOSS 3-4 (A) 3.3 12:02:23 10° SW 12:08:07 73° WNW 12:14:14 10° NNE
NOSS 3-4 (C) 3.3 12:02:30 10° SW 12:08:15 74° NW 12:14:22 10° NNE
ATLAS 2AS CENTAUR R/B 3.7 12:06:26 10° SSW 12:14:06 61° ESE 12:21:44 10° NE
